Regional Weather Roundup
Issued by NWS Sioux Falls, SD

Home | Current Version | Previous Version | Graphics & Text | Print | Product List | Glossary On
Versions: 1 2 3 4 5 6 7 8 9 10 11 12 13 14 15 16 17 18 19 20 21 22 23 24 25 26 27 28 29 30 31 32 33 34 35 36 37 38 39 40 41 42 43 44 45 46 47 48 49 50
000
ASUS43 KFSD 242202
RWRFSD

WEATHER ROUNDUP FOR SE SOUTH DAKOTA/SW MINNESOTA/NW IOWA
NATIONAL WEATHER SERVICE SIOUX FALLS SD
500 PM CDT SUN MAY 24 2015

NOTE: "FAIR" INDICATES FEW OR NO CLOUDS BELOW 12,000 FEET WITH NO
SIGNIFICANT WEATHER AND OR OBSTRUCTIONS TO VISIBILITY.


SDZ038>040-050-052>070-242300-
SOUTHEAST SOUTH DAKOTA

CITY           SKY/WX    TMP DP  RH WIND       PRES   REMARKS
BROOKINGS      CLOUDY    61  57  88 E8        29.86S
CHAMBERLAIN    CLOUDY    60  58  94 NE9       29.83F
HURON          LGT RAIN  61  58  90 E6        29.84S
MADISON        LGT RAIN  59  59 100 E13       29.84F
MITCHELL       CLOUDY    64  61  90 E8        29.82F
SIOUX FALLS    CLOUDY    62  60  93 NE8       29.81F
WINNER         CLOUDY    61  57  87 E9        29.83F
YANKTON        CLOUDY    63  59  88 CALM      29.79F
$$

MNZ071-072-080-081-089-090-097-098-242300-
SOUTHWEST MINNESOTA

CITY           SKY/WX    TMP DP  RH WIND       PRES   REMARKS
FAIRMONT       CLOUDY    61  55  82 E12       29.82F
JACKSON        FOG       59  59 100 E9        29.83S VSB 1
LUVERNE        DRIZZLE   63  57  82 E9        29.81F
MARSHALL       CLOUDY    59  54  82 E12       29.85F
MONTEVIDEO     DRIZZLE   61  61 100 SE14      29.88F
REDWOOD FALLS  LGT RAIN  60  59  96 E10       29.86F FOG
TRACY          DRIZZLE   60  59  96 E12       29.85F
WINDOM         DRIZZLE   61  57  88 E12       29.83F
WORTHINGTON    CLOUDY    61  55  82 E13       29.82F
$$

IAZ001>003-012>014-020>022-031-032-NEZ013-014-SDZ071-242300-
NORTHWEST IOWA

CITY           SKY/WX    TMP DP  RH WIND       PRES   REMARKS
DENISON        CLOUDY    64  64 100 SW3       29.78S FOG
ESTHERVILLE    CLOUDY    60  60 100 SE8       29.81F FOG
SIOUX CITY     CLOUDY    65  60  84 SW6       29.80S
SPENCER        CLOUDY    64  62  93 SE7       29.80F
$$

ABBREVIATIONS USED IN REMARKS
   TC - TEMPERATURE IN CELSIUS
  WCI - WIND CHILL INDEX
   HX - HEAT INDEX
  VSB - VISIBILITY



USA.gov is the U.S. government's official web portal to all federal, state and local government web resources and services.